Terug naar catalogus

DMC 3-FM1

ActiefWetenschapSSO
NORAD 40715·PAYLOAD·🇬🇧 United Kingdom

Gelanceerd Jul 10, 2015 vanaf Satish Dhawan Space Centre

Loading…

Volgende Passages (komende 24 uur)

TLE

VersSource: Space-Track

Epoch: Sep 14, 2026, 13:46 UTC

1 40715U 15032A   26257.57372929  .00000550  00000-0  69125-4 0  9991
2 40715  97.6317 119.1885 0006848 111.4725 248.7222 14.85817711603180

Volg DMC 3-FM1 in realtime met AllMySat

Download on the App Store